Location: Peterborough
(44.3091°N, 78.3197°W)
Time: 00:09:50
(UTC-04:00)

Vanguard 2 Rocket - Pass Details

Date: 31 March 2023
Orbit: 554 x 3314 km, 32.9° (Epoch: 02 June)

Event Time Altitude Azimuth Distance (km) Brightness Sun altitude
Rises 21:00:09 0° 251° (WSW) 3,323 10.6 -14.8°
Reaches altitude 10° 21:02:23 10° 242° (WSW) 2,616 9.8 -15.2°
Maximum altitude 21:08:05 36° 177° (S) 1,901 8.3 -16.1°
Enters shadow 21:13:20 21° 128° (SE) 3,049 9.0 -17.0°
Drops below altitude 10° 21:17:24 10° 116° (ESE) 4,297 - -17.7°
Sets 21:22:12 0° 110° (ESE) 5,788 - -18.4°
